MST,Max TemperatureF,Mean TemperatureF,Min TemperatureF,Max Dew PointF,MeanDew PointF,Min DewpointF,Max Humidity, Mean Humidity, Min Humidity, Max Sea Level PressureIn, Mean Sea Level PressureIn, Min Sea Level PressureIn, Max VisibilityMiles, Mean VisibilityMiles, Min VisibilityMiles, Max Wind SpeedMPH, Mean Wind SpeedMPH, Max Gust SpeedMPH,PrecipitationIn, CloudCover, Events, WindDirDegrees
2013-11-1,54,42,29,26,20,15,69,51,32,30.28,30.08,29.87,10,10,10,16,9,21,0.00,1,,134
2013-11-2,71,52,32,24,20,13,66,39,11,30.24,30.04,29.75,10,10,10,22,8,28,0.00,0,,229
2013-11-3,68,55,41,23,19,12,37,26,14,29.72,29.58,29.49,10,10,10,32,15,39,0.00,0,,243
2013-11-4,55,40,25,32,25,16,85,55,24,30.05,29.90,29.62,10,10,10,22,8,28,T,2,,100
2013-11-5,42,31,19,33,26,16,91,73,54,30.25,29.99,29.72,10,10,10,20,9,24,T,6,Rain,341
2013-11-6,58,37,15,19,13,8,92,53,14,30.35,30.28,30.17,10,10,10,30,11,38,0.00,0,,284
2013-11-7,66,46,25,16,14,12,62,37,12,30.46,30.26,29.99,10,10,10,23,8,26,0.00,0,,245
2013-11-8,75,56,37,16,10,7,33,20,7,29.97,29.84,29.70,10,10,10,23,12,28,0.00,0,,249
2013-11-9,65,48,31,23,19,14,56,37,18,30.19,30.09,29.91,10,10,10,14,8,16,0.00,0,,219
2013-11-10,67,50,32,25,21,17,66,41,16,30.27,30.17,30.06,10,10,10,14,8,17,0.00,0,,247
2013-11-11,68,48,27,30,21,9,100,55,9,30.62,30.38,30.12,10,6,0,17,10,22,0.00,2,Fog,13
2013-11-12,57,42,26,30,26,23,100,66,32,30.72,30.59,30.39,10,7,1,18,9,24,0.00,3,,263
2013-11-13,68,50,31,27,15,-3,56,31,6,30.36,30.14,29.87,10,10,10,22,12,26,0.00,0,,246
2013-11-14,55,44,33,29,23,16,64,48,31,30.01,29.91,29.76,10,10,10,17,8,22,0.00,0,,213
2013-11-15,66,50,34,30,20,12,51,32,13,29.78,29.58,29.39,10,10,10,29,14,37,0.00,0,,252
2013-11-16,64,53,42,26,21,10,45,29,13,29.40,29.36,29.29,10,10,10,35,17,45,0.00,0,,250
2013-11-17,60,45,30,25,21,17,54,37,20,30.07,29.78,29.43,10,10,10,30,9,38,0.00,0,,60
2013-11-18,58,41,24,22,18,14,68,45,21,30.16,30.09,30.02,10,10,10,18,9,22,0.00,0,,238
2013-11-19,63,45,26,17,12,7,53,34,14,29.98,29.80,29.67,10,10,10,28,10,33,0.00,0,,267
2013-11-20,59,45,30,26,21,15,56,40,24,29.85,29.78,29.70,10,10,10,24,7,21,0.00,2,,257
2013-11-21,44,29,14,29,20,9,100,75,49,30.67,30.24,29.82,10,4,1,22,10,28,T,8,Rain-Snow,30
2013-11-22,26,20,14,23,18,10,91,86,81,30.70,30.55,30.46,10,4,0,9,3,10,0.01,8,Fog-Snow,232
2013-11-23,29,26,22,24,22,19,92,84,75,30.69,30.57,30.46,10,9,2,8,3,9,T,8,Snow,71
2013-11-24,33,27,21,29,19,16,92,76,59,30.43,30.13,29.92,10,7,0,29,14,37,0.00,7,Fog-Snow,252
2013-11-25,34,31,27,29,25,21,92,78,64,30.34,30.14,29.93,10,7,1,,,,0.06,8,Snow,-1
2013-11-26,41,30,19,23,18,14,77,61,44,30.47,30.40,30.32,10,10,10,18,10,20,0.00,2,,264
2013-11-27,49,36,23,26,20,15,68,51,34,30.33,30.19,30.07,10,10,10,20,11,23,0.00,0,,242
2013-11-28,44,35,25,28,22,17,78,62,45,30.29,30.21,30.09,10,10,10,20,7,23,0.00,0,,266
2013-11-29,60,45,30,27,21,16,75,46,17,30.21,30.14,30.05,10,10,10,18,10,22,0.00,0,,272
2013-11-30,55,41,26,25,19,12,69,44,19,30.24,30.16,30.08,10,10,10,17,9,22,0.00,0,,268